RPA5818 KLGA-KRDU

Flight info

Callsign RPA5818
Flight time 1h 7m
Altitude 30000
Route WHITE Q409 VILLS NALES Q141 HOUKY TAQLE3
Aircraft E75L/M-SDE3GILORVW/S

Departure

Time 2026-05-04 16:56
Airport LaGuardia Airport (KLGA)

Arrival

Time 2026-05-04 18:03
Airport Raleigh-Durham International Airport (KRDU)
Time Latitude Longitude Altitude Speed Heading
2026-05-04 16:35 40.76913 -73.85882 31 ft 0 kts 128°
2026-05-04 16:48 40.76921 -73.85958 31 ft 2 kts 40°
2026-05-04 16:48 40.76917 -73.85963 31 ft 0 kts 40°
2026-05-04 16:50 40.76917 -73.85962 31 ft 0 kts 40°
2026-05-04 16:51 40.76919 -73.85960 31 ft 1 kts 41°
2026-05-04 16:51 40.76924 -73.85954 31 ft 1 kts 39°
2026-05-04 16:51 40.76958 -73.85920 31 ft 4 kts 30°
2026-05-04 16:52 40.77042 -73.85917 31 ft 8 kts
2026-05-04 16:52 40.77091 -73.85885 31 ft 9 kts 36°
2026-05-04 16:53 40.77145 -73.85808 31 ft 0 kts 50°
2026-05-04 16:53 40.77170 -73.85770 31 ft 5 kts 50°
2026-05-04 16:54 40.77204 -73.85731 31 ft 7 kts
2026-05-04 16:55 40.77254 -73.85812 31 ft 13 kts 300°
2026-05-04 16:55 40.77846 -73.87053 32 ft 136 kts 303°
2026-05-04 16:56 40.78959 -73.89369 1011 ft 148 kts 297°
2026-05-04 16:56 40.80575 -73.93213 2866 ft 167 kts 277°
2026-05-04 16:57 40.80332 -73.94790 3097 ft 192 kts 236°
2026-05-04 16:57 40.77578 -73.96367 3904 ft 251 kts 193°
2026-05-04 16:58 40.72412 -73.97839 6917 ft 256 kts 202°
2026-05-04 16:58 40.70712 -73.98606 7833 ft 260 kts 203°
2026-05-04 16:59 40.67214 -74.00157 9555 ft 270 kts 203°
2026-05-04 17:00 40.59491 -74.03309 12020 ft 316 kts 200°
2026-05-04 17:00 40.53122 -74.05543 14303 ft 323 kts 200°
2026-05-04 17:01 40.48747 -74.07203 15629 ft 331 kts 202°
2026-05-04 17:01 40.44280 -74.08949 16868 ft 339 kts 202°
2026-05-04 17:02 40.39688 -74.10674 18077 ft 347 kts 201°
2026-05-04 17:02 40.35014 -74.12412 19215 ft 352 kts 201°
2026-05-04 17:03 40.32639 -74.13295 19750 ft 356 kts 201°
2026-05-04 17:03 40.30248 -74.14184 20262 ft 359 kts 201°
2026-05-04 17:03 40.25396 -74.15986 21246 ft 366 kts 201°
2026-05-04 17:04 40.20487 -74.17808 22138 ft 373 kts 201°
2026-05-04 17:04 40.15447 -74.19674 23028 ft 379 kts 201°
2026-05-04 17:05 40.10345 -74.21558 23905 ft 383 kts 201°
2026-05-04 17:05 40.05182 -74.23463 24720 ft 388 kts 201°
2026-05-04 17:06 40.00044 -74.25624 25526 ft 384 kts 213°
2026-05-04 17:06 39.97873 -74.27599 25932 ft 380 kts 221°
2026-05-04 17:07 39.93616 -74.31719 26724 ft 382 kts 221°
2026-05-04 17:07 39.92198 -74.33086 26966 ft 383 kts 221°
2026-05-04 17:07 39.89320 -74.35849 27416 ft 386 kts 221°
2026-05-04 17:07 39.87150 -74.37924 27723 ft 388 kts 221°
2026-05-04 17:08 39.84963 -74.40010 28027 ft 390 kts 221°
2026-05-04 17:08 39.80727 -74.44406 28639 ft 388 kts 230°
2026-05-04 17:08 39.78855 -74.46944 28948 ft 389 kts 230°
2026-05-04 17:09 39.76965 -74.49469 29252 ft 390 kts 230°
2026-05-04 17:09 39.75062 -74.51997 29540 ft 392 kts 230°
2026-05-04 17:09 39.73148 -74.54529 29803 ft 393 kts 230°
2026-05-04 17:10 39.69261 -74.59667 29999 ft 405 kts 230°
2026-05-04 17:10 39.63177 -74.67710 30009 ft 427 kts 230°
2026-05-04 17:11 39.58959 -74.73278 30009 ft 439 kts 230°
2026-05-04 17:12 39.52480 -74.81809 30009 ft 447 kts 230°
2026-05-04 17:13 39.41580 -74.96084 30013 ft 447 kts 230°
2026-05-04 17:14 39.32822 -75.07506 30011 ft 448 kts 230°
2026-05-04 17:15 39.26251 -75.16048 30012 ft 447 kts 230°
2026-05-04 17:16 39.17706 -75.27114 30000 ft 448 kts 230°
2026-05-04 17:17 39.08902 -75.38467 29986 ft 447 kts 230°
2026-05-04 17:18 39.00121 -75.49751 29986 ft 447 kts 230°
2026-05-04 17:19 38.91286 -75.61063 29997 ft 447 kts 230°
2026-05-04 17:19 38.87564 -75.67271 30004 ft 437 kts 244°
2026-05-04 17:20 38.84557 -75.73984 30009 ft 436 kts 244°
2026-05-04 17:20 38.80034 -75.84091 30015 ft 436 kts 244°
2026-05-04 17:21 38.73865 -75.97447 30014 ft 439 kts 237°
2026-05-04 17:22 38.71744 -76.00298 30018 ft 447 kts 226°
2026-05-04 17:22 38.69300 -76.02792 30023 ft 450 kts 223°
2026-05-04 17:23 38.60137 -76.11610 30000 ft 450 kts 222°
2026-05-04 17:23 38.55093 -76.16442 29298 ft 453 kts 222°
2026-05-04 17:24 38.52584 -76.18850 28789 ft 450 kts 222°
2026-05-04 17:24 38.45046 -76.26103 27219 ft 455 kts 222°
2026-05-04 17:25 38.42527 -76.28527 26694 ft 451 kts 222°
2026-05-04 17:25 38.37572 -76.33286 26094 ft 446 kts 222°
2026-05-04 17:26 38.32625 -76.38040 26014 ft 445 kts 222°
2026-05-04 17:26 38.25809 -76.45893 26021 ft 439 kts 232°
2026-05-04 17:27 38.21615 -76.51542 26029 ft 439 kts 231°
2026-05-04 17:27 38.17403 -76.57189 26036 ft 440 kts 231°
2026-05-04 17:28 38.13193 -76.62822 26042 ft 440 kts 231°
2026-05-04 17:29 38.06898 -76.71238 26043 ft 441 kts 231°
2026-05-04 17:29 38.00567 -76.79684 26042 ft 440 kts 231°
2026-05-04 17:30 37.93100 -76.86516 26042 ft 456 kts 209°
2026-05-04 17:31 37.87141 -76.89355 26045 ft 459 kts 205°
2026-05-04 17:31 37.78169 -76.93246 24644 ft 435 kts 205°
2026-05-04 17:32 37.72729 -76.95599 23843 ft 404 kts 205°
2026-05-04 17:33 37.65226 -76.98930 23124 ft 406 kts 205°
2026-05-04 17:33 37.62571 -77.00116 22874 ft 403 kts 205°
2026-05-04 17:34 37.54717 -77.03629 22264 ft 396 kts 205°
2026-05-04 17:34 37.52107 -77.04800 22229 ft 399 kts 205°
2026-05-04 17:35 37.44287 -77.08306 22127 ft 397 kts 206°
2026-05-04 17:35 37.39080 -77.10637 22040 ft 397 kts 206°
2026-05-04 17:35 37.36485 -77.11789 22036 ft 397 kts 205°
2026-05-04 17:36 37.33880 -77.12955 22037 ft 396 kts 207°
2026-05-04 17:36 37.31446 -77.14287 22036 ft 393 kts 211°
2026-05-04 17:36 37.28888 -77.15774 22032 ft 393 kts 211°
2026-05-04 17:36 37.26380 -77.17225 21483 ft 400 kts 211°
2026-05-04 17:37 37.23868 -77.18670 20972 ft 394 kts 210°
2026-05-04 17:37 37.21409 -77.20077 20528 ft 383 kts 211°
2026-05-04 17:37 37.19009 -77.21448 20084 ft 374 kts 211°
2026-05-04 17:37 37.16659 -77.22799 19644 ft 369 kts 212°
2026-05-04 17:38 37.14416 -77.24344 19221 ft 368 kts 217°
2026-05-04 17:38 37.12206 -77.25986 18775 ft 371 kts 217°
2026-05-04 17:38 37.09986 -77.27630 18325 ft 368 kts 216°
2026-05-04 17:38 37.07793 -77.29245 17883 ft 363 kts 216°
2026-05-04 17:39 37.03496 -77.32408 17031 ft 355 kts 216°
2026-05-04 17:39 37.01374 -77.33984 16602 ft 355 kts 217°
2026-05-04 17:39 36.99285 -77.35541 16182 ft 354 kts 216°
2026-05-04 17:40 36.97176 -77.37112 15761 ft 352 kts 216°
2026-05-04 17:40 36.95079 -77.38674 15340 ft 348 kts 216°
2026-05-04 17:40 36.93007 -77.40215 14937 ft 345 kts 216°
2026-05-04 17:40 36.90956 -77.41740 14524 ft 343 kts 216°
2026-05-04 17:41 36.88909 -77.43260 14118 ft 341 kts 216°
2026-05-04 17:41 36.86870 -77.44778 13710 ft 340 kts 216°
2026-05-04 17:41 36.84844 -77.46278 13362 ft 336 kts 216°
2026-05-04 17:41 36.82840 -77.47761 13224 ft 337 kts 216°
2026-05-04 17:42 36.80814 -77.49261 13154 ft 337 kts 216°
2026-05-04 17:42 36.78803 -77.50748 13115 ft 336 kts 216°
2026-05-04 17:42 36.76790 -77.52236 13088 ft 336 kts 216°
2026-05-04 17:42 36.74783 -77.53719 13084 ft 336 kts 216°
2026-05-04 17:43 36.72769 -77.55204 13083 ft 336 kts 216°
2026-05-04 17:43 36.70776 -77.56668 13083 ft 335 kts 216°
2026-05-04 17:43 36.68765 -77.58147 13088 ft 336 kts 216°
2026-05-04 17:43 36.66750 -77.59627 13088 ft 335 kts 216°
2026-05-04 17:44 36.64742 -77.61105 13089 ft 335 kts 216°
2026-05-04 17:44 36.62736 -77.62578 13089 ft 335 kts 216°
2026-05-04 17:44 36.60733 -77.64050 13089 ft 336 kts 216°
2026-05-04 17:44 36.58716 -77.65530 13088 ft 336 kts 216°
2026-05-04 17:45 36.56708 -77.67002 13091 ft 335 kts 216°
2026-05-04 17:45 36.54702 -77.68474 13087 ft 335 kts 216°
2026-05-04 17:45 36.52707 -77.69980 13081 ft 333 kts 220°
2026-05-04 17:45 36.50990 -77.71811 13083 ft 316 kts 228°
2026-05-04 17:46 36.49445 -77.73626 13076 ft 296 kts 229°
2026-05-04 17:46 36.47999 -77.75326 13065 ft 277 kts 229°
2026-05-04 17:46 36.46640 -77.76928 13056 ft 264 kts 229°
2026-05-04 17:46 36.45280 -77.78544 13062 ft 280 kts 230°
2026-05-04 17:47 36.43854 -77.80257 13072 ft 287 kts 230°
2026-05-04 17:47 36.42425 -77.81958 13068 ft 281 kts 230°
2026-05-04 17:47 36.41030 -77.83614 13065 ft 276 kts 229°
2026-05-04 17:47 36.39634 -77.85276 13066 ft 280 kts 230°
2026-05-04 17:48 36.38221 -77.86958 13069 ft 281 kts 230°
2026-05-04 17:48 36.36812 -77.88630 13065 ft 279 kts 229°
2026-05-04 17:48 36.35408 -77.90290 13009 ft 280 kts 229°
2026-05-04 17:48 36.33975 -77.91992 12569 ft 288 kts 229°
2026-05-04 17:49 36.32539 -77.93687 12246 ft 282 kts 229°
2026-05-04 17:49 36.31131 -77.95344 11934 ft 274 kts 229°
2026-05-04 17:49 36.29762 -77.96949 11605 ft 269 kts 229°
2026-05-04 17:49 36.28419 -77.98526 11276 ft 263 kts 228°
2026-05-04 17:50 36.27096 -78.00080 10919 ft 260 kts 228°
2026-05-04 17:50 36.25789 -78.01620 10587 ft 257 kts 228°
2026-05-04 17:50 36.24517 -78.03116 10277 ft 254 kts 228°
2026-05-04 17:50 36.23312 -78.04687 9961 ft 249 kts 237°
2026-05-04 17:51 36.22543 -78.06586 9671 ft 248 kts 251°
2026-05-04 17:51 36.21900 -78.08588 9370 ft 252 kts 248°
2026-05-04 17:51 36.21197 -78.10581 9186 ft 250 kts 248°
2026-05-04 17:51 36.20495 -78.12563 8933 ft 253 kts 247°
2026-05-04 17:52 36.19797 -78.14560 8686 ft 253 kts 248°
2026-05-04 17:52 36.19104 -78.16557 8437 ft 251 kts 248°
2026-05-04 17:52 36.18422 -78.18532 8183 ft 248 kts 248°
2026-05-04 17:52 36.17746 -78.20492 7932 ft 247 kts 248°
2026-05-04 17:53 36.17077 -78.22444 7685 ft 246 kts 248°
2026-05-04 17:53 36.16416 -78.24372 7436 ft 246 kts 248°
2026-05-04 17:53 36.15743 -78.26348 7179 ft 245 kts 248°
2026-05-04 17:53 36.15172 -78.28302 6934 ft 245 kts 253°
2026-05-04 17:54 36.14786 -78.30349 6688 ft 244 kts 257°
2026-05-04 17:54 36.14393 -78.32390 6420 ft 244 kts 256°
2026-05-04 17:54 36.13992 -78.34421 6217 ft 240 kts 255°
2026-05-04 17:54 36.13606 -78.36401 6131 ft 241 kts 256°
2026-05-04 17:55 36.13218 -78.38462 6085 ft 242 kts 256°
2026-05-04 17:55 36.12849 -78.40488 6035 ft 241 kts 257°
2026-05-04 17:55 36.12392 -78.42482 6014 ft 241 kts 248°
2026-05-04 17:55 36.11614 -78.44319 6015 ft 242 kts 241°
2026-05-04 17:56 36.10814 -78.46150 6017 ft 242 kts 243°
2026-05-04 17:56 36.10043 -78.47991 6021 ft 242 kts 243°
2026-05-04 17:56 36.09265 -78.49845 6023 ft 242 kts 243°
2026-05-04 17:56 36.08478 -78.51685 5996 ft 243 kts 242°
2026-05-04 17:57 36.07662 -78.53571 5617 ft 252 kts 242°
2026-05-04 17:57 36.06993 -78.55087 5352 ft 251 kts 242°
2026-05-04 17:57 36.06086 -78.56879 5180 ft 242 kts 233°
2026-05-04 17:57 36.05012 -78.58280 4841 ft 244 kts 225°
2026-05-04 17:58 36.03846 -78.59710 4429 ft 235 kts 226°
2026-05-04 17:58 36.02722 -78.61151 4245 ft 230 kts 227°
2026-05-04 17:58 36.01614 -78.62571 3746 ft 228 kts 227°
2026-05-04 17:58 36.00532 -78.63947 3378 ft 216 kts 226°
2026-05-04 17:59 35.99530 -78.65231 3206 ft 199 kts 226°
2026-05-04 17:59 35.98601 -78.66402 3022 ft 182 kts 225°
2026-05-04 17:59 35.96919 -78.68467 2500 ft 158 kts 225°
2026-05-04 18:00 35.96192 -78.69368 2327 ft 137 kts 226°
2026-05-04 18:00 35.95564 -78.70148 2124 ft 122 kts 226°
2026-05-04 18:00 35.94943 -78.70932 2002 ft 131 kts 225°
2026-05-04 18:00 35.94302 -78.71732 1868 ft 131 kts 226°
2026-05-04 18:01 35.93648 -78.72529 1666 ft 131 kts 225°
2026-05-04 18:01 35.93016 -78.73308 1455 ft 127 kts 226°
2026-05-04 18:01 35.92378 -78.74095 1316 ft 131 kts 226°
2026-05-04 18:02 35.91089 -78.75688 945 ft 131 kts 225°
2026-05-04 18:02 35.90461 -78.76466 778 ft 128 kts 225°
2026-05-04 18:02 35.89812 -78.77251 610 ft 129 kts 226°
2026-05-04 18:02 35.89196 -78.78036 452 ft 126 kts 226°
2026-05-04 18:03 35.88683 -78.78667 445 ft 69 kts 225°
2026-05-04 18:03 35.88505 -78.78885 444 ft 24 kts 225°
2026-05-04 18:03 35.88395 -78.79021 444 ft 19 kts 225°
2026-05-04 18:03 35.88297 -78.79074 444 ft 8 kts 173°
2026-05-04 18:04 35.88253 -78.79046 444 ft 6 kts 135°
2026-05-04 18:04 35.88222 -78.79008 444 ft 5 kts 135°
2026-05-04 18:04 35.88168 -78.78993 444 ft 5 kts 231°
2026-05-04 18:05 35.88141 -78.79034 444 ft 7 kts 231°
2026-05-04 18:05 35.88104 -78.79090 444 ft 9 kts 231°
2026-05-04 18:05 35.88054 -78.79148 444 ft 11 kts 224°
2026-05-04 18:05 35.87996 -78.79217 444 ft 12 kts 224°
2026-05-04 18:06 35.87885 -78.79357 444 ft 13 kts 227°
2026-05-04 18:06 35.87802 -78.79460 444 ft 8 kts 225°
2026-05-04 18:06 35.87766 -78.79490 444 ft 5 kts 155°
2026-05-04 18:07 35.87744 -78.79475 444 ft 4 kts 151°
2026-05-04 18:07 35.87723 -78.79450 444 ft 2 kts 136°
2026-05-04 18:07 35.87722 -78.79450 444 ft 0 kts 136°
2026-05-04 18:08 35.87722 -78.79449 444 ft 0 kts 136°